Location: Palleja
(41.4200°N, 2.0000°E)
Time: 11:36:47
(UTC+01:00)

Tiangong 1 - Visible Passes

Search period start: 21 January 2018 00:00
Search period end: 31 January 2018 00:00
Orbit: 262 x 287 km, 42.8° (Epoch: 21 January)

Date Brightness Start Highest point End Pass type
(mag) Time Alt. Az. Time Alt. Az. Time Alt. Az.
21 Jan 1.2 19:29:35 10° W 19:31:47 51° SW 19:31:47 51° SW visible
22 Jan 1.8 19:29:01 10° W 19:31:18 33° SSW 19:31:30 33° SSW visible
23 Jan 2.7 19:28:26 10° W 19:30:22 20° SSW 19:31:14 17° S visible
24 Jan 3.5 19:28:07 10° WSW 19:29:15 12° SSW 19:30:24 10° S visible
